Дата Пункты Температура Давл., мм. Влажн., % Ветер Погодные явления
Воздуха Воды Направл. Скорость
09.12.14 07:00 Одесса 3.0 2.0 759 98 Пн 6 20 часов
09.12.14 04:00 Одесса 3.0 2.0 759 99 Пн 3 17 часов
09.12.14 01:00 Одесса 3.0 2.0 758 100 Пн 7 14 часов
09.12.14 10:00 Одесса 2.0 2.0 759 100 Пн 6 11 часов
09.12.14 07:00 Одесса 2.0 2.0 759 98 Пн 6 08 часов
09.12.14 04:00 Одесса 1.0 2.0 759 100 Пн 4 05 часов
09.12.14 01:00 Одесса 1.0 2.0 760 100 Пн 4 02 часа
08.12.14 10:00 Одесса 1.0 2.0 760 98 Пн 4 23 часа
08.12.14 07:00 Одесса 1.0 2.0 760 100 Пн 3 20 часов
08.12.14 04:00 Одесса 1.0 2.0 759 100 Пн 3 17 часов
08.12.14 01:00 Одесса 1.0 2.0 759 98 Пн 3 14 часов
08.12.14 04:00 Одесса -1.0 2.0 760 97 Пн 3 05 часов
07.12.14 07:00 Одесса -1.0 2.0 761 99 Пн-С 5 20 часов
07.12.14 04:00 Одесса -2.0 2.0 762 99 Пн-С 5 17 часов
07.12.14 01:00 Одесса -2.0 2.0 762 100 Пн 3 14 часов
07.12.14 10:00 Одесса -2.0 3.0 763 98 Пн-С 5 11 часов
07.12.14 07:00 Одесса -2.0 3.0 763 100 Пн-С 6 08 часов
07.12.14 04:00 Одесса -2.0 3.0 763 100 Пн-С 5 05 часов
07.12.14 01:00 Одесса -2.0 3.0 764 96 Пн-С 5 02 часа
06.12.14 10:00 Одесса -3.0 3.0 765 98 Пн-С 7 23 часа
Количество строк
471 472 473 474 475 476 477 478 479 480
Page 479 of 511